Taos, NM (87571)

6:50 AM MDT on April 24, 2017 (GMT -0600)
Valverde | | Change Station
Active Advisory: Fire Weather Warning

Elev 6923 ft 36.41 °N, 105.58 °W | Updated 4 minutes ago

Clear
Clear
49.9 °F
Feels Like 49 °F
N
4.0
Wind Variable Wind from West
Gusts 8.0 mph

Today
High -- | Low -- °F
--% Chance of Precip.
Yesterday
High -- | Low -- °F
Precip. -- in
Pressure 29.95 in
Visibility 10.0 miles
Clouds Clear
Windchill 49 °F
Dew Point 24 °F
Humidity 37%
Rainfall 0.00 in
Snow Depth Not available.
6:16 AM 7:44 PM
Waning Crescent, 6% visible
METAR KAXX 241235Z AUTO 24014G21KT 10SM CLR 09/M08 A2995 RMK AO2 T00861084
Pressure 29.95 in
Visibility 10.0 miles
Clouds Clear
Windchill 49 °F
Dew Point 24 °F
Humidity 37%
Rainfall 0.00 in
Snow Depth Not available.
6:16 AM 7:44 PM
Waning Crescent, 6% visible
METAR KAXX 241235Z AUTO 24014G21KT 10SM CLR 09/M08 A2995 RMK AO2 T00861084

Get Your Daily Forecast Email!

Thanks for signing up!

Be on the lookout for a verification email in your inbox.

You'll start receiving severe weather alerts in your inbox..

×

10-Day Weather Forecast

Almanac

Astronomy

Apr. 24, 2017 Rise Set
Actual Time
Civil Twilight
Nautical Twilight
Astronomical Twilight
Moon
Length of Visible Light
Length of Day
Tomorrow will be .
, % of the Moon is Illuminated

Today's Extremes

State Highs State Lows

Community

WunderPhotos

WunderBlog® & News

Nearby

Air Quality

  Air Quality AQ Index Pollutant
Not available.

Snow Depth

Station Depth Elevation

Earthquake Activity

City Distance Mag. Time & Date
Minimum magnitude displayed is 2.5.

Coastal Water Temperatures

Place Temperature

Stations

Nearby Weather Stations

Station Location Temp. Windchill Dew Point Humidity Wind Precip. Elev Updated Type
                   

Watches & Warnings

Fire Weather Warning
Issued: 3:21 AM MDT Apr. 24, 2017 – National Weather Service

... Red flag warning remains in effect from 10 am this morning to
9 PM MDT this evening...

* area and timing... much of northern and central New Mexico below
significant snowpack, beginning late this morning and
continuing into this evening before diminishing.

* 20 foot winds... generally west 20 to 35 mph with gusts to near
50 mph.

* Relative humidity... 5 to 10 percent below snowpack.

* Impacts... any fires that develop will likely spread rapidly.
Outdoor burning is not recommended.

Precautionary/preparedness actions...

Please advise the appropriate officials or fire crews in the
field of this red flag warning.